Wind_Speed
6 7 7 7 7 7 7 7 7 7 7 7 7 7 8 8 7 7 7 7 7 8 9 10 10 10 10 11 11 11 11 11 11 11 11 11 11 11 11 10 11 11 11 11
7 7 8 8 8 8 8 8 8 8 8 8 8 8 8 8 7 7 8 8 9 10 10 11 11 11 11 11 11 11 11 11 11 11 11 11 12 12 11 11 12 12 12 12
8 8 9 10 9 9 9 9 9 9 9 9 10 9 9 9 8 8 8 8 9 10 10 11 11 11 11 12 12 12 12 12 12 12 12 12 13 12 12 12 12 12 12 12
9 9 9 10 11 11 10 10 11 11 10 10 11 10 10 9 9 9 9 9 10 10 11 11 11 12 12 12 12 13 13 13 14 14 14 14 14 13 13 13 13 13 13 13
10 10 11 11 11 12 12 12 12 12 11 11 11 11 10 10 10 9 9 10 11 12 12 13 13 13 13 13 14 14 14 14 15 15 16 15 15 15 15 15 15 14 14 14
11 12 11 11 11 12 12 13 12 12 12 12 11 11 10 11 10 11 11 11 12 13 14 14 14 14 15 15 15 16 16 16 16 17 18 17 17 17 17 17 17 16 16 16
12 12 12 12 12 12 13 12 13 13 13 13 12 12 11 11 11 11 11 12 13 14 14 15 15 16 16 16 16 16 17 18 18 19 19 19 19 19 19 19 19 19 19 18
12 12 12 12 12 12 13 13 13 14 14 14 13 13 12 13 13 13 13 13 14 14 15 16 16 17 17 17 17 17 18 19 20 20 21 21 21 20 20 20 20 21 21 20
12 12 12 13 13 13 13 13 14 15 15 16 15 15 14 14 14 14 14 14 15 15 16 17 18 18 18 19 19 19 20 20 21 21 21 22 22 22 22 22 22 22 22 22
12 13 13 12 13 14 14 14 15 16 17 17 17 17 17 16 16 16 16 17 17 17 18 18 19 20 20 20 20 20 21 21 22 22 22 23 23 23 23 23 23 24 24 24
13 13 13 13 13 14 15 15 17 18 18 19 19 18 19 18 17 18 18 18 19 19 19 19 19 20 20 21 22 22 22 23 23 23 24 24 24 24 24 24 24 25 25 26
14 15 14 14 14 15 16 16 17 18 19 20 21 19 20 19 18 19 19 19 19 20 20 21 21 20 21 22 23 23 24 23 24 24 24 25 25 25 25 26 26 26 26 27
14 16 16 15 15 16 16 17 18 19 20 20 21 20 20 20 20 20 20 20 20 20 21 22 22 22 22 23 24 24 24 24 24 25 25 25 25 26 27 27 28 28 28 28
15 16 17 16 17 18 18 18 19 20 20 20 21 21 20 21 22 22 21 21 21 21 21 21 22 23 23 24 24 24 24 24 25 26 27 27 27 28 28 29 29 29 29 29
17 17 17 17 18 19 19 18 19 20 21 22 22 22 21 22 22 22 21 22 22 22 22 22 23 23 24 25 25 24 25 25 25 26 27 28 28 28 29 29 29 30 30 30
17 18 18 18 18 20 19 18 19 20 21 22 22 22 22 23 23 23 23 23 22 22 23 24 24 24 25 26 26 26 26 26 27 28 28 28 28 28 29 30 30 31 32 32
18 19 19 19 19 20 20 18 20 21 22 23 24 23 23 23 23 24 24 23 24 24 24 25 25 26 26 27 27 28 27 28 29 29 30 30 30 30 30 31 32 33 33 33
18 19 20 20 19 20 19 20 20 21 22 23 23 23 23 23 24 24 24 25 25 25 26 26 26 27 27 27 28 29 29 30 30 30 31 31 31 32 32 33 33 34 34 34
19 20 21 21 21 21 20 20 21 22 22 22 23 23 24 24 24 24 25 25 26 27 27 27 27 27 28 28 29 29 30 30 31 31 32 32 32 33 34 34 34 34 33 33
20 21 22 23 23 23 21 22 22 23 22 22 22 23 24 25 25 25 25 26 27 28 28 28 28 29 29 30 30 31 31 31 32 33 33 33 34 34 35 35 34 34 34 34
22 23 24 24 25 25 24 24 24 24 24 24 24 24 24 25 26 26 26 28 28 29 30 31 30 30 31 31 32 32 32 33 33 33 33 34 35 35 35 35 36 36 36 36
24 25 25 26 27 26 25 26 26 26 26 26 26 26 26 26 26 27 27 28 29 30 31 31 31 31 32 32 33 33 33 34 34 34 35 35 35 35 36 36 36 36 36 36
26 26 26 27 27 27 26 27 27 28 28 28 28 28 28 28 28 28 28 29 30 31 32 32 32 32 32 33 33 34 34 34 34 35 36 36 37 37 37 38 38 37 37 37
28 28 28 28 28 28 28 28 29 29 30 29 29 30 30 30 30 30 30 31 31 31 32 32 32 32 33 34 34 34 35 35 35 36 37 38 38 38 38 39 39 39 38 39
29 29 30 30 30 30 30 30 30 30 30 31 31 31 31 32 32 32 32 32 32 31 32 32 32 33 34 35 36 36 36 36 37 37 38 39 40 40 39 39 39 39 38 39
29 30 31 31 31 32 31 32 32 32 31 31 32 32 32 33 33 34 34 34 33 33 33 33 34 34 35 35 35 35 36 37 37 38 38 39 39 40 40 39 39 38 38 38
Wind_Direction
254 259 262 261 255 252 252 254 253 257 264 268 271 271 279 279 281 280 275 275 276 277 280 282 283 283 284 285 288 288 289 290 290 293 293 293 295 295 295 297 299 301 298 295
259 259 262 258 256 252 250 255 258 260 266 269 270 273 275 276 279 282 280 279 277 276 278 279 281 280 281 282 285 287 286 286 286 289 289 286 287 288 289 289 292 295 296 296
262 264 264 261 258 257 256 257 261 265 263 266 268 271 272 274 278 284 285 285 281 281 279 281 282 280 280 281 282 284 283 281 279 279 281 281 283 287 286 286 288 290 291 292
262 264 263 260 261 261 257 258 259 260 262 264 267 270 270 275 281 284 286 286 287 284 286 286 287 285 283 284 282 283 282 279 276 275 277 281 281 284 285 282 284 288 290 291
266 266 263 259 262 264 265 264 263 263 263 265 267 271 270 275 280 283 285 288 287 288 290 290 288 288 285 284 284 283 282 280 278 278 277 279 279 281 281 282 283 285 288 289
268 267 263 260 262 264 266 267 267 264 265 268 270 271 269 276 281 281 286 290 290 291 293 293 289 288 286 284 282 281 282 281 279 280 280 281 279 281 281 282 283 283 285 287
266 262 261 260 260 261 263 265 265 263 263 267 271 272 274 280 282 286 288 291 291 292 293 292 290 287 284 283 282 282 282 281 281 282 281 282 281 281 282 281 282 282 283 284
268 261 260 261 262 264 265 265 266 268 268 270 273 275 278 280 282 287 290 291 293 293 292 290 288 287 284 282 282 281 281 280 280 281 280 281 281 281 281 282 282 281 281 280
274 267 261 260 261 262 264 265 268 270 271 273 275 278 279 280 283 288 291 291 291 294 293 290 287 285 284 283 284 284 283 281 280 281 281 280 281 281 281 281 281 280 279 278
274 270 266 263 261 261 264 268 270 272 274 274 277 279 281 282 285 287 288 289 289 290 289 287 285 283 283 284 284 284 283 282 282 282 281 281 280 280 281 281 280 279 278 278
272 270 269 269 267 265 264 266 268 272 275 278 278 278 282 282 284 285 286 286 287 287 287 284 282 282 282 282 283 283 283 283 282 281 280 280 281 280 280 280 280 280 279 278
272 270 270 270 269 266 267 269 270 272 275 277 279 279 281 281 281 283 284 285 286 286 287 284 282 280 282 284 284 284 283 283 281 281 281 280 280 280 280 281 281 282 281 280
274 271 271 268 268 267 266 268 270 272 274 277 280 281 279 279 280 281 283 283 285 286 286 285 282 280 282 284 283 284 282 282 281 281 282 283 280 279 281 283 283 283 283 282
274 271 272 271 271 270 268 269 272 274 276 279 281 283 280 279 280 281 281 281 282 284 284 284 282 282 283 284 283 281 280 281 281 282 282 283 282 282 282 282 283 282 282 281
274 273 271 269 271 272 271 272 273 275 278 279 281 282 283 280 280 279 278 279 280 282 283 284 283 282 284 284 283 281 281 281 282 282 282 283 284 284 283 283 283 283 282 281
276 274 273 270 270 270 271 273 275 277 277 280 282 282 282 282 282 281 281 281 281 283 284 284 284 284 285 285 283 282 283 282 283 283 283 284 283 283 282 283 284 285 284 282
277 277 277 274 272 270 273 277 277 278 279 280 281 282 283 284 283 282 280 281 282 282 285 285 286 285 285 284 283 283 283 283 283 283 283 284 283 283 282 282 283 284 284 284
277 276 276 275 272 272 277 277 279 280 281 281 282 282 283 285 284 282 280 279 281 282 283 284 285 286 286 286 285 284 283 283 283 283 284 284 283 284 284 285 286 284 283 282
278 277 277 276 275 276 276 279 281 282 284 284 284 283 282 284 284 284 283 281 281 281 282 283 284 286 285 285 285 285 285 285 284 284 285 284 284 284 284 285 287 286 284 284
279 278 278 279 279 280 281 280 282 283 285 286 287 285 284 284 284 284 283 282 282 282 282 282 284 286 287 286 286 285 286 286 286 286 286 285 285 285 284 285 285 285 285 284
276 277 276 277 279 281 282 282 282 284 286 286 287 287 286 286 286 285 285 283 283 283 283 283 283 285 286 287 286 287 286 286 287 287 287 287 286 285 284 285 285 285 284 284
276 276 276 276 277 281 283 282 283 285 285 286 287 289 289 289 287 286 286 285 284 284 285 284 284 285 285 285 285 286 286 285 285 286 287 288 287 286 284 284 284 284 284 284
276 276 277 277 279 282 283 283 283 284 285 287 288 288 289 289 289 287 286 286 285 284 285 284 284 283 285 285 285 285 286 287 286 286 287 289 288 286 285 285 285 284 284 283
275 276 277 278 279 280 281 281 282 282 284 286 287 288 288 288 289 289 287 286 285 285 285 284 284 284 285 286 287 287 287 287 288 288 288 288 288 288 286 286 285 284 284 284
276 276 276 276 278 279 279 280 281 281 283 284 286 287 288 288 289 289 288 286 285 285 284 284 285 286 286 286 287 287 287 288 288 289 289 290 290 290 288 287 287 286 285 285
276 275 275 275 276 276 277 278 279 281 282 283 284 286 287 287 288 288 287 287 286 285 285 285 286 287 287 287 288 288 288 288 289 289 290 290 290 289 288 288 287 286 286 285
Height
5859 5860 5860 5860 5860 5860 5860 5861 5861 5861 5860 5860 5860 5859 5859 5858 5857 5857 5857 5858 5858 5857 5857 5857 5857 5856 5856 5855 5854 5854 5853 5853 5852 5851 5850 5849 5849 5848 5847 5846 5845 5844 5843 5842
5858 5858 5858 5858 5858 5858 5858 5858 5858 5859 5858 5857 5857 5857 5856 5855 5855 5855 5855 5855 5855 5854 5854 5854 5854 5853 5852 5852 5851 5850 5850 5849 5849 5848 5847 5846 5845 5845 5844 5843 5842 5841 5841 5840
5856 5857 5856 5856 5855 5856 5856 5856 5856 5856 5855 5855 5854 5854 5854 5853 5852 5852 5852 5852 5852 5851 5851 5850 5850 5849 5849 5848 5848 5847 5846 5846 5845 5844 5844 5843 5842 5841 5841 5840 5839 5838 5837 5837
5853 5853 5853 5853 5853 5853 5853 5853 5853 5852 5852 5852 5852 5852 5851 5850 5850 5849 5849 5849 5848 5848 5847 5847 5846 5845 5845 5844 5844 5843 5843 5842 5841 5840 5840 5839 5838 5838 5837 5837 5836 5835 5834 5833
5851 5850 5850 5850 5850 5850 5850 5850 5850 5850 5849 5849 5849 5848 5849 5847 5847 5847 5846 5846 5845 5844 5844 5843 5842 5841 5841 5840 5840 5839 5839 5838 5837 5836 5836 5835 5834 5834 5833 5832 5832 5831 5830 5829
5848 5847 5847 5847 5847 5847 5847 5847 5847 5846 5846 5846 5846 5845 5845 5844 5844 5843 5843 5842 5842 5841 5840 5839 5838 5837 5837 5836 5836 5835 5834 5834 5833 5832 5831 5831 5830 5829 5829 5828 5827 5827 5826 5825
5845 5844 5843 5844 5844 5844 5844 5844 5844 5843 5842 5843 5842 5841 5843 5841 5840 5839 5839 5838 5838 5837 5836 5835 5834 5833 5832 5832 5831 5830 5830 5829 5828 5827 5827 5826 5825 5824 5824 5823 5822 5822 5821 5820
5840 5841 5840 5840 5840 5840 5840 5840 5841 5840 5839 5839 5839 5838 5839 5837 5836 5835 5835 5834 5834 5833 5832 5831 5829 5828 5827 5827 5826 5825 5825 5824 5823 5822 5821 5820 5820 5819 5818 5817 5816 5816 5815 5815
5836 5837 5837 5837 5836 5837 5836 5836 5836 5836 5835 5835 5834 5834 5834 5833 5832 5831 5831 5830 5829 5828 5827 5826 5825 5823 5822 5822 5821 5820 5819 5818 5817 5816 5815 5814 5814 5812 5812 5811 5810 5810 5809 5808
5833 5833 5833 5833 5833 5833 5833 5832 5832 5831 5831 5830 5830 5829 5830 5828 5828 5827 5826 5825 5824 5823 5822 5821 5820 5819 5817 5816 5815 5814 5813 5812 5811 5810 5809 5808 5807 5806 5805 5805 5804 5803 5802 5801
5829 5829 5829 5829 5829 5829 5829 5828 5827 5827 5826 5826 5825 5827 5825 5824 5823 5822 5821 5820 5819 5818 5817 5815 5814 5813 5812 5811 5810 5808 5807 5806 5805 5804 5803 5802 5800 5800 5799 5798 5797 5796 5795 5794
5824 5825 5825 5825 5825 5824 5824 5823 5823 5823 5822 5820 5820 5823 5820 5819 5818 5817 5816 5815 5813 5812 5810 5809 5808 5807 5806 5805 5803 5802 5801 5799 5798 5797 5796 5795 5794 5793 5792 5791 5790 5789 5787 5786
5820 5820 5820 5821 5822 5820 5819 5818 5818 5818 5817 5816 5815 5818 5814 5813 5812 5811 5810 5808 5807 5806 5804 5803 5802 5801 5799 5798 5797 5795 5794 5792 5791 5790 5789 5788 5787 5786 5784 5783 5782 5781 5780 5778
5815 5815 5816 5816 5814 5814 5814 5814 5813 5812 5811 5810 5810 5809 5808 5807 5805 5805 5804 5802 5801 5800 5798 5796 5795 5794 5793 5791 5789 5788 5787 5786 5784 5783 5782 5781 5779 5778 5777 5775 5774 5772 5771 5770
5810 5810 5809 5809 5809 5808 5808 5808 5807 5806 5805 5804 5804 5802 5802 5800 5799 5798 5797 5796 5794 5793 5791 5790 5788 5787 5786 5784 5782 5781 5780 5778 5777 5776 5775 5773 5772 5770 5769 5767 5765 5764 5762 5761
5805 5805 5804 5804 5803 5803 5803 5802 5802 5801 5800 5798 5797 5797 5796 5794 5793 5791 5790 5789 5787 5786 5784 5783 5781 5780 5778 5777 5775 5774 5772 5771 5770 5768 5767 5765 5764 5762 5760 5759 5757 5755 5753 5751
5800 5799 5799 5799 5798 5797 5798 5798 5796 5795 5794 5792 5791 5791 5789 5788 5786 5785 5783 5782 5780 5779 5777 5776 5774 5773 5771 5769 5768 5767 5765 5763 5762 5760 5758 5756 5755 5753 5751 5750 5748 5746 5744 5742
5795 5794 5793 5793 5793 5792 5795 5792 5790 5788 5787 5785 5784 5783 5782 5781 5779 5778 5776 5775 5773 5772 5770 5768 5767 5765 5763 5761 5760 5758 5757 5755 5753 5751 5749 5747 5746 5744 5742 5740 5737 5735 5733 5732
5789 5788 5787 5786 5785 5785 5787 5786 5783 5781 5780 5779 5778 5776 5775 5773 5772 5770 5769 5767 5765 5763 5762 5760 5759 5757 5755 5753 5752 5750 5748 5746 5744 5742 5740 5738 5736 5734 5732 5729 5727 5725 5723 5721
5783 5782 5782 5780 5779 5779 5781 5779 5776 5776 5774 5773 5771 5769 5768 5766 5765 5764 5761 5760 5758 5756 5754 5752 5751 5749 5747 5745 5743 5741 5739 5737 5735 5733 5731 5728 5726 5724 5721 5719 5717 5714 5712 5710
5777 5776 5775 5773 5772 5772 5773 5771 5770 5770 5769 5766 5763 5762 5760 5758 5757 5755 5753 5751 5749 5748 5746 5744 5742 5740 5738 5736 5734 5732 5730 5728 5725 5723 5721 5718 5716 5713 5711 5709 5707 5704 5702 5700
5770 5769 5767 5766 5765 5767 5765 5763 5763 5761 5759 5758 5756 5754 5752 5750 5748 5746 5744 5742 5740 5739 5737 5735 5733 5731 5729 5727 5725 5723 5720 5718 5716 5713 5711 5708 5705 5703 5700 5698 5696 5694 5691 5690
5762 5762 5760 5760 5760 5758 5756 5755 5753 5752 5751 5749 5747 5746 5744 5741 5739 5737 5735 5733 5731 5730 5728 5725 5723 5721 5719 5717 5715 5713 5710 5708 5706 5703 5701 5698 5695 5692 5689 5687 5685 5683 5681 5679
5754 5753 5752 5750 5750 5749 5747 5746 5744 5743 5741 5740 5738 5736 5734 5732 5730 5728 5726 5724 5722 5720 5718 5716 5714 5711 5709 5707 5705 5702 5700 5698 5695 5693 5690 5687 5684 5681 5678 5675 5673 5671 5669 5667
5746 5744 5742 5741 5741 5739 5738 5737 5735 5734 5733 5731 5729 5727 5725 5723 5721 5719 5717 5715 5713 5711 5709 5706 5704 5702 5700 5697 5694 5692 5690 5687 5685 5682 5679 5676 5672 5669 5666 5664 5661 5658 5656 5654
5737 5735 5733 5733 5732 5730 5729 5728 5726 5725 5723 5722 5720 5719 5716 5714 5712 5710 5707 5705 5703 5701 5699 5697 5694 5692 5690 5687 5684 5682 5679 5676 5673 5671 5668 5664 5661 5658 5654 5652 5649 5646 5644 5642